Agadir/Al Massir, Morocco

10:13 AM WET on February 25, 2017 (GMT +0000)
Al-Massira

Weather History for GMAD - April, 2013

Change the Weather History Date:

Friday, April 12, 2013

  Actual Average Record
Temperature  
Mean Temperature 62 °F -  
Max Temperature 71 °F - - ()
Min Temperature 54 °F - - ()
Degree Days  
Heating Degree Days 2    
Growing Degree Days 12 (Base 50)    
Moisture  
Dew Point 57 °F    
Average Humidity 81    
Maximum Humidity 94    
Minimum Humidity 58    
Precipitation  
Precipitation 0.00 in - - ()
Sea Level Pressure  
Sea Level Pressure 29.98 in    
Wind  
Wind Speed 2 mph ()    
Max Wind Speed 12 mph    
Max Gust Speed -    
Visibility 5.4 miles    
Events      
T = Trace of Precipitation, MM = Missing Value Source: Averaged Metar Reports

Daily Weather History Graph

Daily Weather History Graph

Search for Another Location

Airport or City:

Trip Planner

Search our weather history database for the weather conditions in past years. The results will help you decide how hot, cold, wet, or windy it might be!

Date:

Astronomy

Apr. 12, 2013 Rise Set
Actual Time 6:13 AM WET 7:03 PM WET
Civil Twilight 5:49 AM WET 7:27 PM WET
Nautical Twilight 5:20 AM WET 7:56 PM WET
Astronomical Twilight 4:50 AM WET 8:26 PM WET
Moon 7:23 AM WET (4/12) 9:11 PM WET (4/12)
Length of Visible Light 13h 38m
Length of Day
12h 49m
Waxing Crescent, 4% of the Moon is Illuminated
Apr 12
Waxing Crescent
Apr 18
First Quarter
Apr 25
Full
May 2
Last Quarter
May 10
New

Hourly Weather History & Observations

Time (WET) Temp. Dew Point Humidity Pressure Visibility Wind Dir Wind Speed Gust Speed Precip Events Conditions
12:00 AM 60 °F 56 °F 82% 30.07 in 6 mi ENE 3.5 mph - -   Mostly Cloudy
12:00 AM 60.8 °F 55.4 °F 82% 30.06 in 6.2 mi ENE 3.5 mph - N/A   Scattered Clouds
1:00 AM 59.0 °F 55.4 °F 88% 30.04 in 6.2 mi Calm Calm - N/A   Scattered Clouds
2:00 AM 57.2 °F 55.4 °F 94% 30.01 in 5.6 mi Calm Calm - N/A   Scattered Clouds
3:00 AM 56 °F 54 °F 91% 29.99 in 4 mi Calm Calm - -   Mostly Cloudy
3:00 AM 57.2 °F 53.6 °F 88% 29.98 in 3.7 mi Calm Calm - N/A   Scattered Clouds
4:00 AM 55.4 °F 53.6 °F 94% 29.98 in 3.7 mi Calm Calm - N/A   Scattered Clouds
5:00 AM 55.4 °F 53.6 °F 94% 29.98 in 3.7 mi Calm Calm - N/A   Scattered Clouds
5:50 AM 59.0 °F 57.2 °F 94% 29.98 in 3.7 mi Calm Calm - N/A   Mostly Cloudy
6:00 AM 58 °F 56 °F 92% 29.98 in 4 mi Calm Calm - -   Mostly Cloudy
6:00 AM 59.0 °F 57.2 °F 94% 29.98 in 3.7 mi Calm Calm - N/A   Mostly Cloudy
7:00 AM 59.0 °F 57.2 °F 94% 29.98 in 3.7 mi Calm Calm - N/A   Mostly Cloudy
7:11 AM 60.8 °F 57.2 °F 88% 29.98 in 3.7 mi Calm Calm - N/A   Scattered Clouds
8:00 AM 60.8 °F 57.2 °F 88% 29.98 in 6.2 mi Calm Calm - N/A   Mostly Cloudy
9:00 AM 62 °F 57 °F 79% 30.01 in 6 mi Calm Calm - -   Mostly Cloudy
9:00 AM 62.6 °F 57.2 °F 82% 30.01 in 6.2 mi Calm Calm - N/A   Mostly Cloudy
10:00 AM 64.4 °F 59.0 °F 83% 30.01 in 6.2 mi Calm Calm - N/A   Mostly Cloudy
11:00 AM 66.2 °F 59.0 °F 78% 30.01 in - North - - N/A   Mostly Cloudy
12:00 PM 67 °F 59 °F 68% 30.00 in 6 mi Calm Calm - -   Mostly Cloudy
12:00 PM 68.0 °F 59.0 °F 73% 29.98 in 6.2 mi Calm Calm - N/A   Mostly Cloudy
1:00 PM 68.0 °F 59.0 °F 73% 29.98 in 6.2 mi West 8.1 mph - N/A   Mostly Cloudy
2:00 PM 69.8 °F 59.0 °F 68% 29.98 in 5.0 mi West 9.2 mph - N/A   Mostly Cloudy
3:00 PM 70 °F 58 °F 58% 29.94 in 6 mi West 10.4 mph - -   Partly Cloudy
3:00 PM 69.8 °F 59.0 °F 68% 29.95 in 6.2 mi West 10.4 mph - N/A   Mostly Cloudy
4:00 PM 69.8 °F 57.2 °F 64% 29.92 in 5.0 mi West 11.5 mph - N/A   Scattered Clouds
5:00 PM 66.2 °F 57.2 °F 73% 29.92 in 6.2 mi WSW 9.2 mph - N/A   Scattered Clouds
6:00 PM 67 °F 58 °F 64% 29.94 in 6 mi WSW 8.1 mph - -   Partly Cloudy
6:00 PM 68.0 °F 57.2 °F 68% 29.92 in 6.2 mi WSW 8.1 mph - N/A   Scattered Clouds
7:00 PM 64.4 °F 57.2 °F 77% 29.92 in 6.2 mi Calm Calm - N/A   Scattered Clouds
8:00 PM 60.8 °F 55.4 °F 82% 29.95 in 6.2 mi Calm Calm - N/A   Scattered Clouds
9:00 PM 60 °F 55 °F 79% 29.98 in - Calm Calm - -  
9:00 PM 59.0 °F 55.4 °F 88% 29.98 in 6.2 mi Calm Calm - N/A   Unknown
10:00 PM 59.0 °F 55.4 °F 88% 30.01 in 6.2 mi Calm Calm - N/A   Unknown
11:00 PM 59.0 °F 55.4 °F 88% 30.01 in 6.2 mi Calm Calm - N/A   Scattered Clouds